| time (UTC) | temp F | wind direction | speed knots | gust knots | rain 1hr in | rain 24hr in | rain mn in | humidity % | barometer mb |
| 20260502195950 | 56 | 351 | 2.6 | 5.2 | 0.00 | 0.00 | 0.00 | 85 | 1014.4 |
| 20260502195440 | 57 | 323 | 1.7 | 5.2 | 0.00 | 0.00 | 0.00 | 85 | 1014.4 |
| 20260502195205 | 57 | 16 | 1.7 | 4.3 | 0.00 | 0.00 | 0.00 | 85 | 1014.5 |
| 20260502194439 | 57 | 0 | 1.7 | 4.3 | 0.00 | 0.00 | 0.00 | 84 | 1014.4 |
| 20260502193939 | 58 | 337 | 1.7 | 4.3 | 0.00 | 0.00 | 0.00 | 84 | 1014.5 |
| 20260502193438 | 58 | 9 | 1.7 | 4.3 | 0.00 | 0.00 | 0.00 | 84 | 1014.4 |
| 20260502192939 | 58 | 27 | 2.6 | 7.0 | 0.00 | 0.00 | 0.00 | 83 | 1014.4 |
| 20260502192439 | 59 | 344 | 2.6 | 7.0 | 0.00 | 0.00 | 0.00 | 82 | 1014.4 |
| 20260502192201 | 59 | 350 | 2.6 | 5.2 | 0.00 | 0.00 | 0.00 | 82 | 1014.4 |
| 20260502191449 | 60 | 0 | 2.6 | 5.2 | 0.00 | 0.00 | 0.00 | 81 | 1014.3 |
| 20260502190928 | 60 | 0 | 1.7 | 4.3 | 0.00 | 0.00 | 0.00 | 80 | 1014.3 |
| 20260502190421 | 60 | 0 | 1.7 | 7.0 | 0.00 | 0.00 | 0.00 | 79 | 1014.3 |
| 20260502185918 | 61 | 0 | 2.6 | 7.0 | 0.00 | 0.00 | 0.00 | 79 | 1014.3 |
| 20260502185415 | 61 | 0 | 2.6 | 7.8 | 0.00 | 0.00 | 0.00 | 78 | 1014.3 |
| 20260502184915 | 62 | 28 | 2.6 | 7.8 | 0.00 | 0.00 | 0.00 | 77 | 1014.3 |
| 20260502184417 | 62 | 0 | 2.6 | 7.0 | 0.00 | 0.00 | 0.00 | 76 | 1014.2 |
| 20260502183914 | 62 | 320 | 2.6 | 7.0 | 0.00 | 0.00 | 0.00 | 76 | 1014.2 |
| 20260502183414 | 63 | 311 | 2.6 | 7.0 | 0.00 | 0.00 | 0.00 | 76 | 1014.2 |
| 20260502182915 | 63 | 315 | 2.6 | 5.2 | 0.00 | 0.00 | 0.00 | 76 | 1014.2 |
| 20260502182413 | 63 | 325 | 2.6 | 7.0 | 0.00 | 0.00 | 0.00 | 76 | 1014.2 |
| 20260502181912 | 64 | 333 | 2.6 | 7.0 | 0.00 | 0.00 | 0.00 | 76 | 1014.2 |
| 20260502181410 | 64 | 0 | 1.7 | 7.0 | 0.00 | 0.00 | 0.00 | 77 | 1014.2 |
| 20260502180908 | 64 | 336 | 2.6 | 7.0 | 0.00 | 0.00 | 0.00 | 77 | 1014.2 |
| 20260502180406 | 65 | 5 | 2.6 | 7.0 | 0.00 | 0.00 | 0.00 | 77 | 1014.2 |
| 20260502180127 | 65 | 0 | 2.6 | 7.8 | 0.00 | 0.00 | 0.00 | 77 | 1014.2 |
| 20260502170352 | 67 | 15 | 3.5 | 7.8 | 0.00 | 0.00 | 0.00 | 77 | 1014.4 |
| 20260502164348 | 68 | 0 | 3.5 | 7.8 | 0.00 | 0.00 | 0.00 | 76 | 1014.5 |
| 20260502164106 | 69 | 37 | 3.5 | 8.7 | 0.00 | 0.00 | 0.00 | 75 | 1014.5 |
| 20260502163347 | 69 | 19 | 3.5 | 8.7 | 0.00 | 0.00 | 0.00 | 74 | 1014.5 |
| 20260502162846 | 70 | 350 | 4.3 | 8.7 | 0.00 | 0.00 | 0.00 | 72 | 1014.6 |
| 20260502162346 | 71 | 22 | 4.3 | 8.7 | 0.00 | 0.00 | 0.00 | 71 | 1014.6 |
| 20260502161845 | 72 | 313 | 3.5 | 9.6 | 0.00 | 0.00 | 0.00 | 69 | 1014.6 |
| 20260502161342 | 72 | 32 | 4.3 | 9.6 | 0.00 | 0.00 | 0.00 | 64 | 1014.7 |
| 20260502160843 | 72 | 300 | 4.3 | 8.7 | 0.00 | 0.00 | 0.00 | 64 | 1014.6 |
| 20260502160341 | 72 | 341 | 4.3 | 9.6 | 0.00 | 0.00 | 0.00 | 63 | 1014.6 |
| 20260502152327 | 74 | 243 | 5.2 | 11.3 | 0.00 | 0.00 | 0.00 | 59 | 1015.0 |
| 20260502152050 | 74 | 254 | 5.2 | 9.6 | 0.00 | 0.00 | 0.00 | 60 | 1015.0 |
| 20260502151327 | 74 | 325 | 4.3 | 9.6 | 0.00 | 0.00 | 0.00 | 60 | 1015.0 |
| 20260502150825 | 74 | 267 | 3.5 | 8.7 | 0.00 | 0.00 | 0.00 | 60 | 1015.1 |
| 20260502150326 | 74 | 304 | 4.3 | 10.4 | 0.00 | 0.00 | 0.00 | 61 | 1015.2 |
| 20260502130251 | 74 | 287 | 6.1 | 12.2 | 0.00 | 0.00 | 0.00 | 48 | 1015.9 |
| 20260502123740 | 74 | 327 | 5.2 | 10.4 | 0.00 | 0.00 | 0.00 | 49 | 1016.0 |
| 20260502123241 | 74 | 282 | 5.2 | 11.3 | 0.00 | 0.00 | 0.00 | 49 | 1016.0 |
| 20260502122740 | 73 | 299 | 5.2 | 11.3 | 0.00 | 0.00 | 0.00 | 50 | 1016.1 |
| 20260502122240 | 74 | 331 | 5.2 | 9.6 | 0.00 | 0.00 | 0.00 | 49 | 1016.0 |
| 20260502121738 | 74 | 303 | 6.1 | 11.3 | 0.00 | 0.00 | 0.00 | 50 | 1016.0 |
| 20260502121457 | 74 | 325 | 6.1 | 12.2 | 0.00 | 0.00 | 0.00 | 48 | 1016.0 |
| 20260502120739 | 74 | 247 | 6.1 | 12.2 | 0.00 | 0.00 | 0.00 | 51 | 1016.1 |
| 20260502120238 | 74 | 318 | 5.2 | 11.3 | 0.00 | 0.00 | 0.00 | 51 | 1016.1 |
| 20260502115733 | 74 | 329 | 4.3 | 8.7 | 0.00 | 0.00 | 0.00 | 52 | 1016.1 |
| 20260502115233 | 74 | 296 | 4.3 | 8.7 | 0.00 | 0.00 | 0.00 | 50 | 1016.2 |
| 20260502114952 | 74 | 277 | 5.2 | 9.6 | 0.00 | 0.00 | 0.00 | 50 | 1016.3 |
| 20260502114717 | 74 | 300 | 5.2 | 10.4 | 0.00 | 0.00 | 0.00 | 50 | 1016.4 |
| 20260502113952 | 74 | 288 | 5.2 | 10.4 | 0.00 | 0.00 | 0.00 | 49 | 1016.3 |
| 20260502113229 | 74 | 271 | 5.2 | 12.2 | 0.00 | 0.00 | 0.00 | 48 | 1016.4 |
| 20260502112727 | 75 | 293 | 5.2 | 12.2 | 0.00 | 0.00 | 0.00 | 47 | 1016.5 |
| 20260502112227 | 75 | 238 | 4.3 | 10.4 | 0.00 | 0.00 | 0.00 | 47 | 1016.4 |
| 20260502111726 | 75 | 263 | 5.2 | 10.4 | 0.00 | 0.00 | 0.00 | 48 | 1016.4 |
| 20260502111226 | 75 | 291 | 5.2 | 11.3 | 0.00 | 0.00 | 0.00 | 46 | 1016.5 |
| 20260502110945 | 74 | 276 | 6.1 | 11.3 | 0.00 | 0.00 | 0.00 | 47 | 1016.4 |
| 20260502110224 | 74 | 267 | 5.2 | 10.4 | 0.00 | 0.00 | 0.00 | 47 | 1016.3 |
| 20260502105723 | 73 | 229 | 4.3 | 8.7 | 0.00 | 0.00 | 0.00 | 49 | 1016.4 |
| 20260502105219 | 72 | 259 | 3.5 | 8.7 | 0.00 | 0.00 | 0.00 | 49 | 1016.3 |
| 20260502104717 | 72 | 257 | 3.5 | 9.6 | 0.00 | 0.00 | 0.00 | 47 | 1016.2 |
| 20260502104214 | 73 | 253 | 5.2 | 11.3 | 0.00 | 0.00 | 0.00 | 45 | 1016.4 |
| 20260502103712 | 73 | 246 | 6.1 | 12.2 | 0.00 | 0.00 | 0.00 | 44 | 1016.6 |
| 20260502103212 | 74 | 232 | 7.0 | 14.8 | 0.00 | 0.00 | 0.00 | 43 | 1016.6 |
| 20260502102712 | 74 | 247 | 7.0 | 14.8 | 0.00 | 0.00 | 0.00 | 41 | 1016.6 |
| 20260502102204 | 75 | 239 | 6.1 | 13.0 | 0.00 | 0.00 | 0.00 | 42 | 1016.5 |
| 20260502101704 | 75 | 258 | 6.1 | 13.0 | 0.00 | 0.00 | 0.00 | 41 | 1016.5 |
| 20260502101203 | 76 | 278 | 5.2 | 12.2 | 0.00 | 0.00 | 0.00 | 39 | 1016.4 |
| 20260502100657 | 76 | 245 | 5.2 | 10.4 | 0.00 | 0.00 | 0.00 | 42 | 1016.4 |
| 20260502100155 | 75 | 228 | 5.2 | 12.2 | 0.00 | 0.00 | 0.00 | 42 | 1016.4 |
| 20260502091132 | 73 | 153 | 4.3 | 9.6 | 0.00 | 0.00 | 0.00 | 44 | 1016.8 |
| 20260502090632 | 73 | 154 | 4.3 | 8.7 | 0.00 | 0.00 | 0.00 | 45 | 1016.8 |
| 20260502090131 | 73 | 200 | 5.2 | 8.7 | 0.00 | 0.00 | 0.00 | 43 | 1016.8 |
| 20260502071116 | 64 | 149 | 5.2 | 10.4 | 0.00 | 0.00 | 0.00 | 59 | 1017.6 |
| 20260502070615 | 63 | 198 | 5.2 | 10.4 | 0.00 | 0.00 | 0.00 | 59 | 1017.7 |
| 20260502070336 | 63 | 237 | 4.3 | 8.7 | 0.00 | 0.00 | 0.00 | 61 | 1017.6 |
| 20260502070059 | 62 | 219 | 5.2 | 9.6 | 0.00 | 0.00 | 0.00 | 63 | 1017.7 |
| 20260502065342 | 62 | 217 | 5.2 | 9.6 | 0.00 | 0.00 | 0.00 | 63 | 1017.6 |
| 20260502064832 | 61 | 238 | 4.3 | 7.8 | 0.00 | 0.00 | 0.00 | 65 | 1017.5 |
| 20260502064109 | 60 | 186 | 4.3 | 8.7 | 0.00 | 0.00 | 0.00 | 66 | 1017.5 |
| 20260502063604 | 60 | 211 | 4.3 | 8.7 | 0.00 | 0.00 | 0.00 | 66 | 1017.4 |
| 20260502063104 | 59 | 208 | 4.3 | 8.7 | 0.00 | 0.00 | 0.00 | 67 | 1017.6 |
| 20260502062603 | 58 | 175 | 4.3 | 8.7 | 0.00 | 0.00 | 0.00 | 68 | 1017.7 |
| 20260502062104 | 57 | 205 | 5.2 | 9.6 | 0.00 | 0.00 | 0.00 | 69 | 1017.6 |
| 20260502061604 | 56 | 174 | 4.3 | 9.6 | 0.00 | 0.00 | 0.00 | 70 | 1017.5 |
| 20260502061104 | 55 | 203 | 4.3 | 9.6 | 0.00 | 0.00 | 0.00 | 72 | 1017.5 |
| 20260502060602 | 54 | 220 | 4.3 | 9.6 | 0.00 | 0.00 | 0.00 | 73 | 1017.5 |
| 20260502060107 | 54 | 184 | 3.5 | 8.7 | 0.00 | 0.00 | 0.00 | 73 | 1017.6 |
| 20260502055552 | 53 | 217 | 3.5 | 7.8 | 0.00 | 0.00 | 0.00 | 75 | 1017.6 |
| 20260502055104 | 53 | 197 | 2.6 | 7.8 | 0.00 | 0.00 | 0.00 | 75 | 1017.6 |
| 20260502054547 | 53 | 178 | 2.6 | 7.8 | 0.00 | 0.00 | 0.00 | 75 | 1017.7 |
| 20260502054045 | 52 | 207 | 3.5 | 7.8 | 0.00 | 0.00 | 0.00 | 76 | 1017.6 |
| 20260502053533 | 52 | 205 | 3.5 | 7.0 | 0.00 | 0.00 | 0.00 | 76 | 1017.6 |
| 20260502053029 | 51 | 209 | 3.5 | 7.0 | 0.00 | 0.00 | 0.00 | 77 | 1017.6 |
| 20260502052529 | 51 | 198 | 3.5 | 6.1 | 0.00 | 0.00 | 0.00 | 77 | 1017.5 |
| 20260502052027 | 51 | 192 | 3.5 | 7.8 | 0.00 | 0.00 | 0.00 | 77 | 1017.5 |
| 20260502051527 | 51 | 171 | 3.5 | 7.8 | 0.00 | 0.00 | 0.00 | 77 | 1017.6 |
| 20260502051027 | 51 | 165 | 3.5 | 7.0 | 0.00 | 0.00 | 0.00 | 77 | 1017.6 |
| 20260502050520 | 51 | 180 | 3.5 | 7.8 | 0.00 | 0.00 | 0.00 | 77 | 1017.6 |
| 20260502050020 | 50 | 184 | 3.5 | 7.8 | 0.00 | 0.00 | 0.00 | 77 | 1017.6 |
| 20260502045519 | 50 | 194 | 3.5 | 6.1 | 0.00 | 0.00 | 0.00 | 77 | 1017.6 |
| 20260502045020 | 50 | 180 | 3.5 | 6.1 | 0.00 | 0.00 | 0.00 | 77 | 1017.7 |
| 20260502044747 | 50 | 192 | 3.5 | 7.8 | 0.00 | 0.00 | 0.00 | 77 | 1017.7 |
| 20260502044020 | 50 | 204 | 3.5 | 7.8 | 0.00 | 0.00 | 0.00 | 77 | 1017.8 |
| 20260502043515 | 50 | 164 | 3.5 | 7.0 | 0.00 | 0.00 | 0.00 | 77 | 1017.8 |
| 20260502043021 | 50 | 188 | 3.5 | 7.0 | 0.00 | 0.00 | 0.00 | 77 | 1017.8 |
| 20260502042507 | 50 | 217 | 3.5 | 7.0 | 0.00 | 0.00 | 0.00 | 77 | 1017.7 |
| 20260502042002 | 50 | 163 | 3.5 | 7.0 | 0.00 | 0.00 | 0.00 | 76 | 1017.7 |
| 20260502041502 | 50 | 190 | 3.5 | 7.0 | 0.00 | 0.00 | 0.00 | 76 | 1017.7 |
| 20260502041004 | 51 | 156 | 3.5 | 7.8 | 0.00 | 0.00 | 0.00 | 76 | 1017.9 |
| 20260502040459 | 51 | 180 | 3.5 | 7.8 | 0.00 | 0.00 | 0.00 | 76 | 1017.9 |
| 20260502035954 | 51 | 183 | 3.5 | 6.1 | 0.00 | 0.00 | 0.00 | 76 | 1017.8 |
| 20260502035454 | 51 | 161 | 3.5 | 6.1 | 0.00 | 0.00 | 0.00 | 76 | 1017.9 |
| 20260502034954 | 51 | 181 | 4.3 | 7.8 | 0.00 | 0.00 | 0.00 | 76 | 1018.0 |
| 20260502034714 | 51 | 159 | 4.3 | 7.8 | 0.00 | 0.00 | 0.00 | 76 | 1017.9 |
| 20260502034216 | 51 | 175 | 4.3 | 7.0 | 0.00 | 0.00 | 0.00 | 76 | 1018.0 |
| 20260502033454 | 51 | 196 | 3.5 | 7.0 | 0.00 | 0.00 | 0.00 | 76 | 1018.0 |
| 20260502032956 | 51 | 174 | 3.5 | 7.0 | 0.00 | 0.00 | 0.00 | 76 | 1018.1 |
| 20260502032454 | 51 | 199 | 3.5 | 7.8 | 0.00 | 0.00 | 0.00 | 76 | 1018.1 |
| 20260502031956 | 51 | 161 | 3.5 | 7.8 | 0.00 | 0.00 | 0.00 | 76 | 1018.0 |
| 20260502031454 | 51 | 150 | 3.5 | 7.0 | 0.00 | 0.00 | 0.00 | 76 | 1018.1 |
| 20260502030955 | 51 | 183 | 3.5 | 6.1 | 0.00 | 0.00 | 0.00 | 76 | 1018.1 |
| 20260502030454 | 51 | 175 | 3.5 | 7.0 | 0.00 | 0.00 | 0.00 | 75 | 1018.2 |
| 20260502025953 | 51 | 188 | 3.5 | 7.0 | 0.00 | 0.00 | 0.00 | 75 | 1018.2 |
| 20260502025452 | 52 | 175 | 3.5 | 7.0 | 0.00 | 0.00 | 0.00 | 75 | 1018.3 |
| 20260502024953 | 52 | 157 | 4.3 | 7.8 | 0.00 | 0.00 | 0.00 | 75 | 1018.3 |
| 20260502024713 | 52 | 142 | 4.3 | 7.8 | 0.00 | 0.00 | 0.00 | 75 | 1018.3 |
| 20260502023954 | 52 | 162 | 4.3 | 7.8 | 0.00 | 0.00 | 0.00 | 75 | 1018.3 |
| 20260502023452 | 52 | 182 | 3.5 | 7.8 | 0.00 | 0.00 | 0.00 | 76 | 1018.4 |
| 20260502022953 | 52 | 132 | 3.5 | 6.1 | 0.00 | 0.00 | 0.00 | 76 | 1018.4 |
| 20260502022712 | 52 | 193 | 3.5 | 7.0 | 0.00 | 0.00 | 0.00 | 76 | 1018.4 |
| 20260502021953 | 52 | 194 | 3.5 | 7.0 | 0.00 | 0.00 | 0.00 | 76 | 1018.5 |
| 20260502021452 | 52 | 170 | 3.5 | 7.0 | 0.00 | 0.00 | 0.00 | 76 | 1018.5 |
| 20260502020951 | 52 | 198 | 3.5 | 7.0 | 0.00 | 0.00 | 0.00 | 76 | 1018.7 |
| 20260502020504 | 52 | 173 | 3.5 | 6.1 | 0.00 | 0.00 | 0.00 | 76 | 1018.7 |
| 20260502015949 | 52 | 176 | 2.6 | 7.8 | 0.00 | 0.00 | 0.00 | 76 | 1018.6 |
| 20260502015447 | 52 | 175 | 2.6 | 7.8 | 0.00 | 0.00 | 0.00 | 76 | 1018.7 |
| 20260502014947 | 52 | 164 | 3.5 | 7.0 | 0.00 | 0.00 | 0.00 | 76 | 1018.8 |
| 20260502014710 | 52 | 159 | 2.6 | 5.2 | 0.00 | 0.00 | 0.00 | 76 | 1018.8 |
| 20260502013945 | 52 | 157 | 2.6 | 6.1 | 0.00 | 0.00 | 0.00 | 76 | 1018.8 |
| 20260502013445 | 52 | 171 | 2.6 | 6.1 | 0.00 | 0.00 | 0.00 | 75 | 1018.9 |
| 20260502012945 | 52 | 148 | 3.5 | 6.1 | 0.00 | 0.00 | 0.00 | 75 | 1019.0 |
| 20260502012439 | 52 | 157 | 3.5 | 6.1 | 0.00 | 0.00 | 0.00 | 75 | 1019.0 |
| 20260502011934 | 53 | 156 | 3.5 | 6.1 | 0.00 | 0.00 | 0.00 | 75 | 1019.0 |
| 20260502011700 | 53 | 148 | 2.6 | 6.1 | 0.00 | 0.00 | 0.00 | 75 | 1019.2 |
| 20260502011157 | 53 | 142 | 3.5 | 5.2 | 0.00 | 0.00 | 0.00 | 74 | 1019.2 |
| 20260502010433 | 53 | 158 | 3.5 | 6.1 | 0.00 | 0.00 | 0.00 | 74 | 1019.2 |
| 20260502010201 | 53 | 152 | 2.6 | 6.1 | 0.00 | 0.00 | 0.00 | 74 | 1019.3 |
| 20260502005429 | 54 | 149 | 2.6 | 7.8 | 0.00 | 0.00 | 0.00 | 73 | 1019.4 |
| 20260502004929 | 54 | 140 | 2.6 | 7.8 | 0.00 | 0.00 | 0.00 | 73 | 1019.5 |
| 20260502004430 | 54 | 155 | 2.6 | 5.2 | 0.00 | 0.00 | 0.00 | 72 | 1019.5 |
| 20260502004153 | 54 | 165 | 3.5 | 7.0 | 0.00 | 0.00 | 0.00 | 72 | 1019.5 |
| 20260502003430 | 54 | 159 | 3.5 | 7.0 | 0.00 | 0.00 | 0.00 | 72 | 1019.6 |
| 20260502002927 | 54 | 140 | 3.5 | 7.0 | 0.00 | 0.00 | 0.00 | 72 | 1019.7 |
| 20260502002426 | 55 | 149 | 3.5 | 7.0 | 0.00 | 0.00 | 0.00 | 72 | 1019.8 |
| 20260502001926 | 55 | 149 | 3.5 | 7.0 | 0.00 | 0.00 | 0.00 | 72 | 1019.7 |
| 20260502001425 | 55 | 193 | 3.5 | 7.8 | 0.00 | 0.00 | 0.00 | 72 | 1019.8 |
| 20260502000938 | 55 | 169 | 2.6 | 7.8 | 0.00 | 0.00 | 0.00 | 71 | 1019.9 |
| 20260502000642 | 55 | 155 | 2.6 | 5.2 | 0.00 | 0.00 | 0.00 | 71 | 1019.9 |
| 20260501235923 | 55 | 158 | 2.6 | 6.1 | 0.00 | 0.00 | 0.00 | 71 | 1020.0 |
| 20260501235423 | 55 | 153 | 2.6 | 6.1 | 0.00 | 0.00 | 0.00 | 71 | 1020.1 |
| 20260501234924 | 55 | 175 | 2.6 | 6.1 | 0.00 | 0.00 | 0.00 | 71 | 1020.0 |
| 20260501234424 | 55 | 172 | 2.6 | 7.8 | 0.00 | 0.00 | 0.00 | 71 | 1020.1 |
| 20260501233923 | 56 | 191 | 2.6 | 7.8 | 0.00 | 0.00 | 0.00 | 71 | 1020.1 |
| 20260501233651 | 56 | 173 | 2.6 | 6.1 | 0.00 | 0.00 | 0.00 | 71 | 1020.1 |
| 20260501232923 | 56 | 191 | 2.6 | 6.1 | 0.00 | 0.00 | 0.00 | 71 | 1020.1 |
| 20260501232423 | 56 | 162 | 2.6 | 6.1 | 0.00 | 0.00 | 0.00 | 70 | 1020.3 |
| 20260501232146 | 56 | 174 | 2.6 | 7.0 | 0.00 | 0.00 | 0.00 | 70 | 1020.2 |
| 20260501231421 | 56 | 182 | 2.6 | 7.0 | 0.00 | 0.00 | 0.00 | 70 | 1020.2 |
| 20260501230921 | 56 | 161 | 2.6 | 7.0 | 0.00 | 0.00 | 0.00 | 70 | 1020.2 |
| 20260501230421 | 56 | 160 | 3.5 | 7.8 | 0.00 | 0.00 | 0.00 | 70 | 1020.2 |
| 20260501225922 | 56 | 132 | 3.5 | 7.8 | 0.00 | 0.00 | 0.00 | 70 | 1020.2 |
| 20260501225421 | 56 | 196 | 2.6 | 6.1 | 0.00 | 0.00 | 0.00 | 70 | 1020.2 |
| 20260501224921 | 56 | 171 | 2.6 | 6.1 | 0.00 | 0.00 | 0.00 | 70 | 1020.2 |
| 20260501224421 | 56 | 155 | 1.7 | 6.1 | 0.00 | 0.00 | 0.00 | 70 | 1020.2 |
| 20260501223919 | 56 | 161 | 2.6 | 6.1 | 0.00 | 0.00 | 0.00 | 70 | 1020.2 |
| 20260501223420 | 56 | 175 | 2.6 | 5.2 | 0.00 | 0.00 | 0.00 | 70 | 1020.2 |
| 20260501222919 | 56 | 172 | 2.6 | 5.2 | 0.00 | 0.00 | 0.00 | 70 | 1020.3 |
| 20260501222417 | 57 | 162 | 2.6 | 5.2 | 0.00 | 0.00 | 0.00 | 69 | 1020.3 |
| 20260501221917 | 57 | 153 | 2.6 | 4.3 | 0.00 | 0.00 | 0.00 | 69 | 1020.3 |
| 20260501221415 | 57 | 167 | 1.7 | 4.3 | 0.00 | 0.00 | 0.00 | 69 | 1020.3 |
| 20260501220915 | 58 | 173 | 1.7 | 4.3 | 0.00 | 0.00 | 0.00 | 68 | 1020.3 |
| 20260501220416 | 58 | 169 | 1.7 | 4.3 | 0.00 | 0.00 | 0.00 | 68 | 1020.3 |
| 20260501215913 | 58 | 142 | 1.7 | 4.3 | 0.00 | 0.00 | 0.00 | 66 | 1020.4 |
| 20260501215413 | 58 | 162 | 1.7 | 5.2 | 0.00 | 0.00 | 0.00 | 66 | 1020.4 |
| 20260501214913 | 58 | 160 | 1.7 | 5.2 | 0.00 | 0.00 | 0.00 | 67 | 1020.5 |
| 20260501214627 | 58 | 157 | 2.6 | 7.0 | 0.00 | 0.00 | 0.00 | 66 | 1020.5 |
| 20260501213908 | 58 | 139 | 3.5 | 7.0 | 0.00 | 0.00 | 0.00 | 65 | 1020.5 |
| 20260501213630 | 58 | 130 | 3.5 | 7.0 | 0.00 | 0.00 | 0.00 | 65 | 1020.5 |
| 20260501212909 | 58 | 147 | 3.5 | 7.0 | 0.00 | 0.00 | 0.00 | 66 | 1020.6 |
| 20260501212409 | 58 | 167 | 2.6 | 6.1 | 0.00 | 0.00 | 0.00 | 66 | 1020.7 |
| 20260501212350 | 58 | 148 | 2.6 | 6.1 | 0.00 | 0.00 | 0.00 | 65 | 1020.6 |
| 20260501211400 | 59 | 148 | 2.6 | 6.1 | 0.00 | 0.00 | 0.00 | 66 | 1020.6 |
| 20260501210858 | 59 | 155 | 2.6 | 6.1 | 0.00 | 0.00 | 0.00 | 65 | 1020.6 |
| 20260501210404 | 59 | 141 | 2.6 | 6.1 | 0.00 | 0.00 | 0.00 | 65 | 1020.7 |
| 20260501210106 | 59 | 146 | 2.6 | 6.1 | 0.00 | 0.00 | 0.00 | 65 | 1020.7 |
| 20260501205347 | 59 | 148 | 1.7 | 6.1 | 0.00 | 0.00 | 0.00 | 65 | 1020.7 |
| 20260501204845 | 59 | 171 | 1.7 | 5.2 | 0.00 | 0.00 | 0.00 | 65 | 1020.7 |
| 20260501204345 | 60 | 180 | 1.7 | 5.2 | 0.00 | 0.00 | 0.00 | 64 | 1020.7 |
| 20260501203843 | 60 | 160 | 1.7 | 5.2 | 0.00 | 0.00 | 0.00 | 64 | 1020.8 |
| 20260501203604 | 60 | 156 | 1.7 | 3.5 | 0.00 | 0.00 | 0.00 | 63 | 1020.8 |
| 20260501202838 | 60 | 148 | 1.7 | 4.3 | 0.00 | 0.00 | 0.00 | 63 | 1020.8 |
| 20260501202336 | 60 | 140 | 1.7 | 4.3 | 0.00 | 0.00 | 0.00 | 63 | 1020.7 |
| 20260501201832 | 61 | 128 | 1.7 | 3.5 | 0.00 | 0.00 | 0.00 | 62 | 1020.9 |
| 20260501201330 | 61 | 148 | 1.7 | 3.5 | 0.00 | 0.00 | 0.00 | 62 | 1021.0 |
| 20260501200814 | 61 | 147 | 1.7 | 5.2 | 0.00 | 0.00 | 0.00 | 62 | 1021.0 |
| 20260501200314 | 62 | 161 | 1.7 | 5.2 | 0.00 | 0.00 | 0.00 | 61 | 1021.1 |